Location: Monrovia
(34.7865°N, 86.7139°W)
Time: 21:59:29
(UTC+00:00)

Cosmos 1697 Rocket - Pass Details

Date: 14 July 2020
Orbit: 834 x 842 km, 71.0° (Epoch: 08 August)

Event Time Altitude Azimuth Distance (km) Brightness Sun altitude
Rises 08:59:27 0° 328° (NNW) 3,388 6.0 -18.3°
Reaches altitude 10° 09:02:06 10° 319° (NW) 2,449 5.1 -17.9°
Maximum altitude 09:07:04 33° 257° (WSW) 1,358 3.3 -17.2°
Enters shadow 09:08:46 28° 223° (SW) 1,524 3.4 -16.9°
